Location: Newark
(46.7000°N, 60.6000°W)
Time: 13:03:42
(UTC+00:00)

A-11 Canister half - Pass Details

Date: 27 October 2020
Orbit: 1525 x 1684 km, 47.3° (Epoch: 01 December)

Event Time Altitude Azimuth Distance (km) Brightness Sun altitude
Rises 18:30:30 0° 225° (SW) 4,791 13.2 19.8°
Reaches altitude 10° 18:33:42 10° 221° (SW) 3,786 13.5 19.4°
Maximum altitude 18:42:55 55° 147° (SSE) 1,813 9.8 18.3°
Drops below altitude 10° 18:51:55 10° 73° (ENE) 3,704 10.5 17.2°
Sets 18:55:00 0° 70° (ENE) 4,682 11.0 16.8°
